Platteville, WI

7:37 AM CST on February 08, 2016 (GMT -0600)
Platteville Municipal

Weather History for KPVB - December, 2013

Change the Weather History Date:

Wednesday, December 18, 2013

  Actual Average (KDBQ) Record (KDBQ)
Temperature  
Mean Temperature 22 °F 22 °F  
Max Temperature 33 °F 29 °F 60 °F (1877)
Min Temperature 11 °F 14 °F -19 °F (1983)
Degree Days  
Heating Degree Days 43 43  
Month to date heating degree days 728  
Since 1 July heating degree days 2228  
Cooling Degree Days 0 0  
Month to date cooling degree days 0  
Year to date cooling degree days 643  
Moisture  
Dew Point 17 °F    
Average Humidity 77    
Maximum Humidity 88    
Minimum Humidity 53    
Precipitation  
Precipitation 0.00 in 0.06 in 0.99 in (1957)
Month to date precipitation 1.21  
Year to date precipitation 35.66  
Snow  
Snow 0.00 in 0.40 in - ()
Month to date snowfall 6.8  
Since 1 July snowfall 9.6  
Snow Depth -    
Sea Level Pressure  
Sea Level Pressure 29.91 in    
Wind  
Wind Speed 9 mph (South)    
Max Wind Speed 21 mph    
Max Gust Speed 25 mph    
Visibility 10 miles    
Events      
T = Trace of Precipitation, MM = Missing Value Source: NWS Daily Summary

Daily Weather History Graph

Daily Weather History Graph

Search for Another Location

Airport or City:

Trip Planner

Search our weather history database for the weather conditions in past years. The results will help you decide how hot, cold, wet, or windy it might be!

Date:

Astronomy

Dec. 18, 2013 Rise Set
Actual Time 7:27 AM CST 4:29 PM CST
Civil Twilight 6:55 AM CST 5:02 PM CST
Nautical Twilight 6:19 AM CST 5:37 PM CST
Astronomical Twilight 5:44 AM CST 6:12 PM CST
Moon 6:03 PM CST (12/18) 8:05 AM CST (12/18)
Length of Visible Light 10h 07m
Length of Day
9h 02m
Full, 98% of the Moon is Illuminated
Dec 18
Full
Dec 25
Last Quarter
Jan 1
New
Jan 7
First Quarter
Jan 15
Full

Hourly Weather History & Observations

Time (CST) Temp. Windchill Dew Point Humidity Pressure Visibility Wind Dir Wind Speed Gust Speed Precip Events Conditions
12:15 AM 16.0 °F 3.6 °F 10.8 °F 80% 30.11 in 10.0 mi West 10.4 mph - N/A   Clear
12:35 AM 16.2 °F 3.9 °F 10.9 °F 80% 30.11 in 10.0 mi West 10.4 mph - N/A   Clear
12:55 AM 16.2 °F 4.7 °F 11.1 °F 81% 30.11 in 10.0 mi West 9.2 mph - N/A   Clear
1:15 AM 15.6 °F 5.9 °F 10.8 °F 81% 30.10 in 10.0 mi West 6.9 mph - N/A   Clear
1:35 AM 15.1 °F 6.4 °F 10.4 °F 82% 30.09 in 10.0 mi West 5.8 mph - N/A   Clear
1:55 AM 14.0 °F 2.9 °F 9.5 °F 82% 30.10 in 10.0 mi WSW 8.1 mph - N/A   Clear
2:15 AM 13.8 °F 2.7 °F 9.7 °F 84% 30.11 in 10.0 mi WSW 8.1 mph - N/A   Clear
2:35 AM 13.5 °F 1.3 °F 9.3 °F 84% 30.11 in 10.0 mi WSW 9.2 mph - N/A   Clear
2:55 AM 14.5 °F 2.7 °F 10.0 °F 82% 30.11 in 10.0 mi West 9.2 mph - N/A   Clear
3:15 AM 14.5 °F 7.1 °F 10.6 °F 84% 30.11 in 10.0 mi WSW 4.6 mph - N/A   Clear
3:35 AM 14.5 °F - 10.8 °F 85% 30.09 in 10.0 mi Calm Calm - N/A   Clear
3:55 AM 13.5 °F - 9.9 °F 86% 30.09 in 10.0 mi Calm Calm - N/A   Clear
4:15 AM 13.1 °F - 9.7 °F 86% 30.09 in 10.0 mi Calm Calm - N/A   Clear
4:35 AM 13.1 °F - 9.7 °F 86% 30.09 in 10.0 mi Calm Calm - N/A   Mostly Cloudy
4:55 AM 14.0 °F 8.2 °F 10.4 °F 86% 30.09 in 10.0 mi South 3.5 mph - N/A   Mostly Cloudy
5:15 AM 13.1 °F - 9.5 °F 86% 30.09 in 10.0 mi Calm Calm - N/A   Overcast
5:35 AM 12.2 °F 6.1 °F 8.8 °F 86% 30.09 in 10.0 mi South 3.5 mph - N/A   Mostly Cloudy
5:55 AM 11.5 °F 3.5 °F 8.2 °F 87% 30.07 in 10.0 mi SSE 4.6 mph - N/A   Clear
6:15 AM 11.1 °F 0.4 °F 7.7 °F 86% 30.06 in 10.0 mi SE 6.9 mph - N/A   Clear
6:35 AM 11.1 °F 0.4 °F 7.7 °F 86% 30.07 in 10.0 mi SE 6.9 mph - N/A   Clear
6:55 AM 11.3 °F -0.4 °F 8.2 °F 87% 30.05 in 10.0 mi SE 8.1 mph - N/A   Clear
7:15 AM 11.7 °F 0.0 °F 8.6 °F 88% 30.06 in 10.0 mi SE 8.1 mph - N/A   Clear
7:35 AM 12.7 °F 0.4 °F 9.5 °F 87% 30.05 in 10.0 mi SSE 9.2 mph - N/A   Clear
7:55 AM 14.4 °F 2.4 °F 10.8 °F 86% 30.04 in 10.0 mi SSE 9.2 mph - N/A   Clear
8:15 AM 14.9 °F 1.6 °F 11.3 °F 86% 30.02 in 10.0 mi SE 11.5 mph - N/A   Clear
8:35 AM 14.9 °F 2.3 °F 11.3 °F 86% 30.02 in 10.0 mi SE 10.4 mph - N/A   Clear
8:55 AM 16.0 °F 2.9 °F 12.0 °F 84% 30.01 in 10.0 mi SE 11.5 mph - N/A   Clear
9:15 AM 17.1 °F 7.6 °F 12.2 °F 81% 30.01 in 10.0 mi SE 6.9 mph - N/A   Clear
9:35 AM 18.5 °F 6.1 °F 13.6 °F 81% 30.00 in 10.0 mi SE 11.5 mph - N/A   Clear
9:55 AM 20.5 °F 8.0 °F 14.7 °F 78% 29.99 in 10.0 mi SSE 12.7 mph - N/A   Clear
10:15 AM 22.3 °F 10.2 °F 15.8 °F 76% 29.98 in 10.0 mi SE 12.7 mph - N/A   Clear
10:35 AM 23.7 °F 11.0 °F 16.3 °F 73% 29.96 in 10.0 mi SSE 15.0 mph - N/A   Clear
10:55 AM 26.1 °F 13.6 °F 17.1 °F 69% 29.94 in 10.0 mi SSE 16.1 mph - N/A   Clear
11:15 AM 28.8 °F 17.0 °F 17.2 °F 62% 29.91 in 10.0 mi SSE 16.1 mph 21.9 mph N/A   Clear
11:35 AM 31.1 °F 19.7 °F 16.9 °F 56% 29.90 in 10.0 mi South 17.3 mph 20.7 mph N/A   Clear
11:55 AM 31.8 °F 20.6 °F 17.2 °F 55% 29.89 in 10.0 mi South 17.3 mph 25.3 mph N/A   Clear
12:15 PM 32.5 °F 20.5 °F 16.9 °F 53% 29.87 in 10.0 mi South 20.7 mph 25.3 mph N/A   Clear
12:35 PM 32.0 °F 20.8 °F 17.2 °F 55% 29.85 in 10.0 mi South 17.3 mph - N/A   Clear
12:55 PM 32.5 °F 21.5 °F 19.0 °F 58% 29.84 in 10.0 mi South 17.3 mph 21.9 mph N/A   Clear
1:15 PM 33.1 °F 23.0 °F 18.9 °F 56% 29.82 in 10.0 mi South 15.0 mph - N/A   Clear
1:35 PM 33.1 °F 23.4 °F 19.0 °F 56% 29.81 in 10.0 mi South 13.8 mph - N/A   Clear
1:55 PM 33.1 °F 23.0 °F 19.8 °F 58% 29.79 in 10.0 mi South 15.0 mph - N/A   Clear
2:15 PM 33.1 °F 23.4 °F 20.8 °F 61% 29.79 in 10.0 mi South 13.8 mph - N/A   Clear
2:35 PM 33.4 °F 23.9 °F 21.2 °F 61% 29.78 in 10.0 mi South 13.8 mph - N/A   Clear
2:55 PM 33.4 °F 24.3 °F 21.9 °F 63% 29.78 in 10.0 mi South 12.7 mph - N/A   Clear
3:15 PM 33.1 °F 24.9 °F 23.0 °F 66% 29.77 in 10.0 mi South 10.4 mph - N/A   Clear
3:35 PM 33.4 °F 24.8 °F 23.0 °F 66% 29.77 in 10.0 mi South 11.5 mph - N/A   Clear
3:55 PM 33.3 °F 24.6 °F 22.8 °F 66% 29.77 in 10.0 mi South 11.5 mph - N/A   Clear
4:15 PM 32.0 °F 22.5 °F 22.5 °F 68% 29.77 in 10.0 mi SSW 12.7 mph - N/A   Clear
4:35 PM 30.9 °F 22.8 °F 21.9 °F 69% 29.77 in 10.0 mi South 9.2 mph - N/A   Clear
4:55 PM 30.0 °F 21.1 °F 21.4 °F 70% 29.77 in 10.0 mi South 10.4 mph - N/A   Clear
5:15 PM 28.9 °F 20.4 °F 21.0 °F 72% 29.77 in 10.0 mi South 9.2 mph - N/A   Clear
5:35 PM 28.4 °F 19.1 °F 20.3 °F 72% 29.76 in 10.0 mi South 10.4 mph - N/A   Clear
5:55 PM 28.2 °F 18.9 °F 20.5 °F 73% 29.76 in 10.0 mi South 10.4 mph - N/A   Clear
6:15 PM 28.6 °F 20.7 °F 21.2 °F 74% 29.77 in 10.0 mi South 8.1 mph - N/A   Clear
6:35 PM 28.2 °F 19.5 °F 21.0 °F 74% 29.77 in 10.0 mi South 9.2 mph - N/A   Clear
6:55 PM 28.0 °F 18.1 °F 21.2 °F 76% 29.77 in 10.0 mi South 11.5 mph - N/A   Clear
7:15 PM 28.4 °F 19.1 °F 21.9 °F 77% 29.77 in 10.0 mi South 10.4 mph - N/A   Clear
7:35 PM 28.8 °F 21.7 °F 22.1 °F 76% 29.77 in 10.0 mi South 6.9 mph - N/A   Clear
7:55 PM 28.0 °F 20.8 °F 22.1 °F 78% 29.77 in 10.0 mi South 6.9 mph - N/A   Clear
8:15 PM 28.4 °F 19.7 °F 22.6 °F 79% 29.77 in 10.0 mi South 9.2 mph - N/A   Clear
8:35 PM 27.3 °F 19.1 °F 21.9 °F 80% 29.77 in 10.0 mi South 8.1 mph - N/A   Clear
8:55 PM 27.5 °F 19.3 °F 22.6 °F 82% 29.77 in 10.0 mi South 8.1 mph - N/A   Clear
9:15 PM 28.2 °F 20.2 °F 23.4 °F 82% 29.78 in 10.0 mi South 8.1 mph - N/A   Clear
9:35 PM 27.1 °F 18.9 °F 22.8 °F 84% 29.77 in 10.0 mi South 8.1 mph - N/A   Clear
9:55 PM 27.3 °F 19.1 °F 23.2 °F 84% 29.77 in 10.0 mi South 8.1 mph - N/A   Clear
10:15 PM 28.6 °F 20.7 °F 24.3 °F 84% 29.77 in 10.0 mi South 8.1 mph - N/A   Clear
10:35 PM 28.4 °F 19.7 °F 24.3 °F 84% 29.77 in 10.0 mi South 9.2 mph - N/A   Clear
10:55 PM 28.0 °F 20.0 °F 23.9 °F 84% 29.78 in 10.0 mi South 8.1 mph - N/A   Clear
11:15 PM 27.7 °F 20.4 °F 23.9 °F 86% 29.78 in 10.0 mi South 6.9 mph - N/A   Clear
11:35 PM 27.3 °F 23.4 °F 23.9 °F 87% 29.78 in 10.0 mi South 3.5 mph - N/A   Clear
11:55 PM 28.9 °F 23.9 °F 25.2 °F 86% 29.78 in 10.0 mi South 4.6 mph - N/A   Clear